Regional Weather Roundup
Issued by NWS Kansas City/Pleasant Hill, MO

Home | Current Version | Previous Version | Graphics & Text | Print | Product List | Glossary Off
Versions: 1 2 3 4 5 6 7 8 9 10 11 12 13 14 15 16 17 18 19 20 21 22 23 24 25 26 27 28 29 30 31 32 33 34 35 36 37 38 39 40 41 42 43 44 45 46 47 48 49 50

000
ASUS43 KEAX 011810
RWREAX

WEATHER ROUNDUP FOR EASTERN KANSAS AND NORTHWEST MISSOURI
NATIONAL WEATHER SERVICE KANSAS CITY/PLEASANT HILL MO
100 PM CDT MON SEP 01 2014

KSZ040-057-103>105-MOZ028-029-037-043-011900-
...KANSAS CITY METROPOLITAN AREA...

CITY           SKY/WX    TMP DP  RH WIND       PRES   REMARKS
K.C. INTL      MOSUNNY   79  67  66 W9        29.90S
6HR MIN TEMP:  65; 6HR MAX TEMP:  79;

K.C. DOWNTOWN  PTSUNNY   81  64  56 W9G20     29.89S
6HR MIN TEMP:  67; 6HR MAX TEMP:  82;

LEES SUMMIT    NOT AVBL
OLATHE - IXD   PTSUNNY   78  67  68 W12       29.92S
6HR MIN TEMP:  65; 6HR MAX TEMP:  79;

OLATHE - OJC   MOSUNNY   78  67  68 W9        29.92R
6HR MIN TEMP:  64; 6HR MAX TEMP:  78;

LAWRENCE       PTSUNNY  N/A N/A N/A W10G20    29.91S

$$

MOZ001>008-011>017-020>025-030>033-038>040-044>046-053-054-011900-
...NORTHERN AND CENTRAL MISSOURI...

CITY           SKY/WX    TMP DP  RH WIND       PRES   REMARKS
ST. JOSEPH     MOSUNNY   78  68  71 SW10      29.89R
6HR MIN TEMP:  66; 6HR MAX TEMP:  78;

MOSBY          PTCLDY    79  64  61 W10       29.89S
WHITEMAN AFB   MOSUNNY   78  67  70 W14       29.91R
6HR MIN TEMP:  66; 6HR MAX TEMP:  78;

CLINTON        MOSUNNY   77  68  73 W10       29.93S
SEDALIA        MOSUNNY   78  66  66 SW14      29.92S
6HR MIN TEMP:  67; 6HR MAX TEMP:  78; 6HR PCP:  0.03;

WARSAW         NOT AVBL
MARSHALL       MOSUNNY   81  70  69 W6G18     29.90S
CHILLICOTHE      N/A     76  66  71 SW10G18   29.89R
6HR MIN TEMP:  66; 6HR MAX TEMP:  77;

KIRKSVILLE     CLOUDY    75  65  70 W9G18     29.88S
6HR MIN TEMP:  65; 6HR MAX TEMP:  75;


$$

MOZ041-047>049-056>058-063>065-088>090-097-011900-
...EASTERN AND SOUTHERN MISSOURI...

CITY           SKY/WX    TMP DP  RH WIND       PRES   REMARKS
ST. LOUIS INTL CLOUDY    82  65  56 W13       29.90R
6HR MIN TEMP:  73; 6HR MAX TEMP:  82; 6HR PCP: TRACE;

SPIRIT OF STL  CLOUDY    80  66  62 W9        29.89R
COLUMBIA       PTSUNNY   79  66  64 SW16      29.91S
JEFFERSON CITY CLOUDY    78  65  63 SW10      29.90F
MEXICO         PTSUNNY   81  70  69 SW16G22   29.90S
HANNIBAL       PTSUNNY   81  63  54 W13       29.88S
ROLLA          CLOUDY    73  65  75 SW13      29.90F
LEBANON        CLOUDY    75  68  78 S12G17    29.93F
OSAGE BEACH    CLOUDY    77  64  65 SW10      29.91F
SPRINGFIELD    MOSUNNY   79  67  66 S20       29.93F
BRANSON        PTSUNNY   77  66  69 SE9G16    30.01F
NEVADA         CLOUDY    79  66  65 S12       29.92S
JOPLIN         CLOUDY    81  66  60 SE20G25   29.91F
WEST PLAINS    CLOUDY    71  66  84 S9        30.02S

$$

IAZ060-094-KSZ022-034>040-054-083-096-NEZ052-066-093-011900-
...KANSAS...SOUTHEAST NEBRASKA AND IOWA...

CITY           SKY/WX    TMP DP  RH WIND       PRES   REMARKS
TOPEKA         CLOUDY    79  67  66 SW9G17    29.91S
6HR MIN TEMP:  67; 6HR MAX TEMP:  80;

MANHATTAN      CLOUDY    78  66  66 W7        29.91S
EMPORIA        CLOUDY    76  65  68 S12       29.91F
CHANUTE        CLOUDY    76  66  71 S20       29.91F
WICHITA        CLOUDY    83  68  60 SE9G18    29.87F
OMAHA          MOSUNNY   76  62  62 NW7       29.88S
LINCOLN        MOSUNNY   79  60  52 NW8G16    29.90S
FALLS CITY     MOSUNNY   75  65  70 W9        29.90R
LAMONI         MOSUNNY   75  65  70 W14       29.85S
DES MOINES     MOSUNNY   80  65  59 W18       29.79S

$$



USA.gov is the U.S. government's official web portal to all federal, state and local government web resources and services.